CW5346 Weather Reports


Display with metric or nautical units.
time (UTC)temp
F
wind
direction
speed
MPH
gust
MPH
rain 1hr
in
rain 24hr
in
rain mn
in
humidity
%
barometer
mb
20260508195604 57 350 0.0 4.0 0.00 0.04 0.04 66 1011.6
20260508194603 57 359 1.0 9.0 0.00 0.04 0.04 64 1011.8
20260508193602 57 351 4.0 11.0 0.00 0.04 0.04 63 1011.6
20260508192603 57 21 4.0 11.0 0.00 0.04 0.04 63 1011.9
20260508191603 57 337 1.0 8.0 0.00 0.04 0.04 66 1012.0
20260508190624 56 325 3.0 8.0 0.00 0.04 0.04 66 1012.0
20260508185603 55 305 1.0 8.0 0.00 0.04 0.04 67 1012.2
20260508184603 55 283 2.0 6.0 0.00 0.04 0.04 66 1012.4
20260508183603 56 276 0.0 12.0 0.00 0.04 0.04 63 1012.2
20260508182624 57 286 2.0 9.0 0.00 0.04 0.04 58 1012.3
20260508181604 58 263 4.0 7.0 0.00 0.04 0.04 53 1011.9
20260508180603 58 266 4.0 13.0 0.00 0.04 0.04 52 1011.5
20260508175603 59 245 4.0 12.0 0.00 0.04 0.04 52 1011.4
20260508174603 58 236 9.0 18.0 0.00 0.04 0.04 52 1011.5
20260508173603 57 272 5.0 11.0 0.00 0.04 0.04 51 1011.5
20260508172604 58 260 2.0 14.0 0.00 0.04 0.04 51 1011.6
20260508171603 59 280 10.0 24.0 0.00 0.04 0.04 51 1011.6
20260508170603 58 314 2.0 14.0 0.00 0.04 0.04 54 1011.5
20260508165603 57 223 3.0 13.0 0.00 0.04 0.04 57 1011.8
20260508164603 57 291 5.0 12.0 0.00 0.04 0.04 54 1011.8
20260508162603 58 222 3.0 14.0 0.00 0.04 0.04 54 1012.0
20260508161603 58 265 4.0 11.0 0.00 0.04 0.04 54 1012.1
20260508160603 58 277 3.0 18.0 0.00 0.04 0.04 54 1012.2
20260508155603 58 225 6.0 23.0 0.00 0.04 0.04 51 1012.2
20260508153603 56 269 4.0 8.0 0.00 0.04 0.04 54 1012.3
20260508152603 57 238 2.0 11.0 0.00 0.04 0.04 50 1012.4
20260508151624 58 229 6.0 12.0 0.00 0.04 0.04 52 1012.4
20260508150603 58 231 0.0 10.0 0.00 0.04 0.04 54 1012.3
20260508145603 58 273 4.0 11.0 0.00 0.04 0.04 52 1012.2
20260508144603 56 244 0.0 9.0 0.00 0.04 0.04 57 1012.3
20260508143624 56 224 2.0 5.0 0.00 0.04 0.04 57 1012.4
20260508142602 56 218 1.0 6.0 0.00 0.04 0.04 59 1012.4
20260508141603 56 218 3.0 8.0 0.00 0.04 0.04 60 1012.3
20260508140602 55 256 1.0 7.0 0.00 0.04 0.04 61 1012.6
20260508135603 55 258 0.0 11.0 0.00 0.04 0.04 63 1012.8
20260508134603 53 236 0.0 10.0 0.00 0.04 0.04 64 1012.9
20260508133603 53 280 1.0 8.0 0.00 0.04 0.04 65 1012.7
20260508132602 52 280 2.0 6.0 0.00 0.04 0.04 68 1012.6
20260508131603 52 287 0.0 4.0 0.00 0.04 0.04 71 1012.5
20260508130603 51 288 0.0 9.0 0.00 0.04 0.04 72 1012.8
20260508125603 51 306 0.0 7.0 0.00 0.04 0.04 75 1012.8
20260508124603 50 309 0.0 0.0 0.00 0.04 0.04 78 1012.8
20260508123602 49 308 0.0 10.0 0.00 0.04 0.04 79 1012.8
20260508122603 48 317 1.0 5.0 0.00 0.04 0.04 81 1013.0
20260508121602 47 317 0.0 6.0 0.00 0.04 0.04 85 1013.0
20260508120603 46 322 0.0 0.0 0.00 0.04 0.04 87 1013.1
20260508115624 46 322 0.0 5.0 0.00 0.04 0.04 90 1012.9
20260508114625 45 312 0.0 6.0 0.00 0.04 0.04 93 1013.0
20260508113603 44 331 0.0 0.0 0.00 0.04 0.04 94 1013.0
20260508112603 44 331 0.0 0.0 0.00 0.04 0.04 94 1012.8
20260508111603 44 331 0.0 0.0 0.00 0.04 0.04 94 1012.7
20260508110602 43 331 0.0 0.0 0.00 0.04 0.04 94 1012.7
20260508105625 43 331 0.0 0.0 0.00 0.04 0.04 94 1012.6
20260508104603 42 331 0.0 0.0 0.00 0.04 0.04 94 1012.6
20260508103603 42 331 0.0 0.0 0.00 0.04 0.04 95 1012.5
20260508102632 42 331 0.0 0.0 0.00 0.04 0.04 94 1012.3
20260508101603 41 331 0.0 0.0 0.00 0.04 0.04 94 1012.3
20260508100603 41 331 0.0 0.0 0.00 0.04 0.04 93 1012.1
20260508095623 42 331 0.0 0.0 0.00 0.04 0.04 93 1012.0
20260508094603 42 331 0.0 0.0 0.00 0.04 0.04 93 1012.0
20260508093603 43 331 0.0 0.0 0.00 0.04 0.04 93 1012.0
20260508092603 43 331 0.0 0.0 0.00 0.04 0.04 93 1011.9
20260508091603 43 331 0.0 0.0 0.00 0.04 0.04 93 1011.9
20260508090602 44 331 0.0 0.0 0.00 0.04 0.04 93 1011.9
20260508085603 44 331 0.0 0.0 0.00 0.04 0.04 93 1011.7
20260508084602 44 331 0.0 0.0 0.00 0.04 0.04 93 1011.7
20260508083603 44 331 0.0 0.0 0.00 0.04 0.04 93 1011.5
20260508081625 45 331 0.0 0.0 0.00 0.04 0.04 92 1011.4
20260508080604 45 331 0.0 0.0 0.00 0.04 0.04 92 1011.4
20260508075605 45 331 0.0 0.0 0.00 0.04 0.04 92 1011.4
20260508074604 45 331 0.0 0.0 0.00 0.05 0.04 91 1011.3
20260508073604 45 331 0.0 0.0 0.00 0.05 0.04 91 1011.4
20260508072604 45 331 0.0 0.0 0.00 0.05 0.04 91 1011.6
20260508071604 45 331 0.0 0.0 0.00 0.05 0.04 91 1011.3
20260508070605 45 331 0.0 4.0 0.00 0.05 0.04 90 1011.6
20260508065604 45 330 0.0 3.0 0.03 0.06 0.04 90 1011.9
20260508064603 45 330 0.0 1.0 0.02 0.06 0.03 90 1011.8
20260508063604 46 331 0.0 0.0 0.02 0.08 0.03 90 1011.7
20260508062604 46 331 0.0 0.0 0.01 0.07 0.02 88 1011.8
20260508061605 47 331 0.0 0.0 0.01 0.08 0.02 86 1011.9
20260508060625 48 331 0.0 0.0 0.00 0.09 0.01 83 1011.9
20260508055625 49 327 3.0 12.0 0.01 0.09 0.01 78 1012.0
20260508054604 49 334 1.0 6.0 0.00 0.10 0.00 69 1011.9
20260508053604 47 335 1.0 6.0 0.00 0.11 0.00 74 1011.3
20260508052604 45 336 0.0 0.0 0.00 0.12 0.00 85 1010.9
20260508051605 45 336 0.0 0.0 0.00 0.12 0.00 85 1009.4
20260508050603 45 336 0.0 0.0 0.00 0.12 0.00 84 1009.3
20260508045604 45 336 0.0 0.0 0.00 0.12 0.00 84 1009.4
20260508044604 45 336 0.0 0.0 0.00 0.12 0.00 83 1009.2
20260508043604 45 336 0.0 0.0 0.00 0.12 0.00 84 1009.2
20260508042604 45 336 0.0 0.0 0.00 0.12 0.00 83 1009.6
20260508041604 45 336 0.0 0.0 0.00 0.12 0.00 83 1009.4
20260508040625 45 336 0.0 0.0 0.00 0.12 0.00 83 1009.3
20260508035603 45 336 0.0 0.0 0.00 0.12 0.12 82 1009.4
20260508034604 45 336 0.0 0.0 0.00 0.12 0.12 82 1009.4
20260508033604 45 336 0.0 0.0 0.00 0.12 0.12 82 1009.3
20260508032604 45 336 0.0 0.0 0.00 0.12 0.12 83 1009.4
20260508031625 45 336 0.0 0.0 0.00 0.12 0.12 82 1009.7
20260508030625 44 336 0.0 0.0 0.00 0.12 0.12 81 1009.6
20260508025604 44 336 0.0 0.0 0.00 0.12 0.12 81 1009.6
20260508024604 45 336 0.0 0.0 0.00 0.12 0.12 81 1009.6
20260508023604 45 336 0.0 0.0 0.00 0.12 0.12 80 1009.7
20260508022604 45 336 0.0 0.0 0.00 0.12 0.12 79 1009.7
20260508021647 46 336 0.0 0.0 0.00 0.12 0.12 78 1009.6
20260508020604 46 336 0.0 0.0 0.00 0.12 0.12 76 1009.6
20260508015646 47 336 0.0 0.0 0.00 0.12 0.12 75 1009.5
20260508014625 47 336 0.0 0.0 0.00 0.12 0.12 74 1009.6
20260508013604 48 336 0.0 0.0 0.00 0.12 0.12 73 1009.5
20260508012604 49 336 0.0 0.0 0.00 0.12 0.12 71 1009.5
20260508011624 49 336 0.0 0.0 0.00 0.12 0.12 69 1009.4
20260508010625 50 336 0.0 0.0 0.00 0.12 0.12 67 1009.3
20260508005603 51 336 0.0 0.0 0.00 0.12 0.12 66 1009.0
20260508004604 52 336 0.0 0.0 0.00 0.14 0.12 63 1008.9
20260508003625 52 336 0.0 0.0 0.00 0.15 0.12 62 1008.8
20260508002604 53 336 0.0 0.0 0.00 0.15 0.12 58 1008.6
20260508001625 55 336 0.0 0.0 0.00 0.15 0.12 57 1008.6
20260508000603 56 336 0.0 0.0 0.00 0.15 0.12 54 1008.5
20260507235604 56 336 0.0 0.0 0.00 0.15 0.12 51 1008.1
20260507234625 57 336 0.0 0.0 0.00 0.15 0.12 50 1008.2
20260507233604 58 336 0.0 0.0 0.00 0.15 0.12 52 1008.1
20260507232604 59 336 0.0 6.0 0.00 0.15 0.12 47 1008.0
20260507231646 60 335 0.0 2.0 0.00 0.15 0.12 44 1008.0
20260507230605 60 336 0.0 4.0 0.00 0.15 0.12 42 1008.0
20260507225625 60 331 1.0 6.0 0.00 0.15 0.12 42 1008.0
20260507224625 60 326 0.0 3.0 0.00 0.15 0.12 46 1007.9
20260507223604 60 331 2.0 6.0 0.00 0.15 0.12 40 1007.9
20260507222604 60 341 1.0 8.0 0.00 0.15 0.12 41 1008.0
20260507221624 61 348 1.0 10.0 0.00 0.15 0.12 42 1007.8
20260507220604 61 342 0.0 8.0 0.00 0.15 0.12 39 1008.0
20260507215603 61 331 4.0 9.0 0.00 0.15 0.12 38 1008.0
20260507214604 61 349 2.0 6.0 0.00 0.15 0.12 40 1008.1
20260507213603 61 354 3.0 11.0 0.00 0.15 0.12 38 1008.0
20260507212604 62 348 2.0 8.0 0.00 0.15 0.12 40 1007.8
20260507211604 62 10 2.0 10.0 0.00 0.15 0.12 39 1007.8
20260507210604 63 258 3.0 7.0 0.00 0.15 0.12 40 1008.0
20260507205625 63 301 1.0 12.0 0.00 0.15 0.12 39 1007.7
20260507204603 63 332 2.0 10.0 0.00 0.15 0.12 41 1007.7
20260507203604 63 2 2.0 9.0 0.00 0.15 0.12 38 1007.6
20260507202625 63 314 2.0 13.0 0.00 0.15 0.12 40 1007.7
20260507201604 63 350 1.0 10.0 0.00 0.15 0.12 38 1007.6
20260507200604 63 18 2.0 11.0 0.00 0.15 0.12 40 1007.7